User: anonymous   Login
Location: Unspecified
(0.0000°N, 0.0000°E)
Time: 22:14:08
(UTC+00:00)
Language:

APRIZESAT 1 (LATINSAT C) - Orbit

View from above orbital plane
View from above orbital plane
View from above satellite
View from above satellite

Ground track
Ground track

The orbit data is extracted from the following two-line orbital elements,

1 28372U 04025G   17326.85142962 +.00000044 +00000-0 +23236-4 0  9997
2 28372 098.2744 271.6659 0045768 325.8979 033.9276 14.49522410708509
Epoch (UTC): 22 November 2017 20:26:03
Eccentricity: 0.0045768
inclination: 98.2744°
perigee height: 694 km
apogee height: 760 km
right ascension of ascending node: 271.6659°
argument of perigee: 325.8979°
revolutions per day: 14.49522410
mean anomaly at epoch: 33.9276°
orbit number at epoch: 70850

The dashed part of the orbit path shows where the satellite is in the earth's shadow,  

DLR